Home   Weather   Rustenburg   Past weeks
Flag for South Africa

Past Weather in Rustenburg, South Africa — Yesterday and Last 2 Weeks

Now
66 °F

Clear.


Feels Like: 66 °F
Forecast: 82 / 47 °F
Wind: 9 mph from South

Location: Lanseria Civ / Mil

Current Time: Aug 22, 2019 at 8:12:53 pm

Latest Report: Aug 22, 2019 at 7:00 pm


Visibility: 10 mi

Pressure: 30.42 "Hg (26.54 "Hg at 1166m altitude)

Humidity: 28%

Dew Point: 32 °F

Location of RustenburgLocation

Past Weather in Rustenburg — Graph

°F

Rustenburg Temperature Yesterday

Maximum temperature yesterday: 70 °F (at 3:00 pm)
Minimum temperature yesterday: 48 °F (at 6:00 am)
Average temperature yesterday: 59 °F

High & Low Weather Summary for the Past Weeks

 TemperatureHumidityPressure
High82 °F (Aug 17, 3:00 pm)94% (Aug 11, 7:00 am)30.66 "Hg (Aug 11, 7:00 am)
Low45 °F (Aug 22, 7:00 am)7% (Aug 20, 4:00 pm)30.18 "Hg (Aug 7, 6:00 pm)
Average63 °F45%30.40 "Hg
* Reported Aug 7 6:00 pm — Aug 22 6:00 pm, Rustenburg. Weather by CustomWeather, © 2019

Note: Actual official high and low records may vary slightly from our data, if they occured in-between our weather recording intervals... More about our weather records

Advertising

Rustenburg Weather History for the Previous 24 Hours

Scroll right to see more
 ConditionsComfort  
Time TempWeatherWind HumidityBarometerVisibility
6:00 pm
Thu, Aug 22
68 °FClear.8 mph26%30.42 "Hg10 mi
5:00 pm72 °FPassing clouds.10 mph23%30.42 "HgN/A
4:00 pm73 °FPassing clouds.10 mph22%30.39 "HgN/A
3:00 pm75 °FPassing clouds.8 mph22%30.39 "HgN/A
2:00 pm73 °FPassing clouds.7 mph25%30.42 "HgN/A
1:00 pm72 °FPassing clouds.13 mph23%30.45 "HgN/A
12:00 pm70 °FPassing clouds.6 mph33%30.48 "HgN/A
11:46 am70 °FPassing clouds.3 mph33%30.48 "HgN/A
11:00 am66 °FPassing clouds.5 mph37%30.51 "HgN/A
10:43 am66 °FSunny.6 mph37%30.51 "Hg10 mi
10:00 am63 °FSunny.3 mph42%30.54 "Hg10 mi
9:32 am61 °FSunny.2 mph45%30.54 "Hg10 mi
9:00 am57 °FSunny.2 mph48%30.54 "Hg10 mi
8:40 am55 °FSunny.3 mph51%30.54 "Hg10 mi
8:13 am52 °FSunny.2 mph58%30.54 "Hg10 mi
7:00 am45 °FSunny.No wind71%30.54 "Hg10 mi
6:00 am48 °FPassing clouds.3 mph62%30.51 "HgN/A
5:00 am46 °FClear.2 mph66%30.51 "Hg10 mi
4:00 am50 °FCool.5 mph58%30.51 "HgN/A
3:00 am50 °FCool.5 mph58%30.51 "HgN/A
2:00 am50 °FCool.7 mph58%30.51 "HgN/A
1:00 am54 °FCool.5 mph58%30.54 "HgN/A
12:00 am54 °FCool.2 mph63%30.51 "HgN/A
11:00 pm
Wed, Aug 21
55 °FRefreshingly cool.5 mph55%30.51 "HgN/A
10:00 pm59 °FClear.3 mph51%30.51 "Hg10 mi
9:00 pm59 °FClear.2 mph51%30.51 "Hg10 mi
8:00 pm61 °FClear.2 mph48%30.51 "Hg10 mi
Weather by CustomWeather, © 2019

See weather overview